Location: ?????
(55.1969°N, 39.2847°E)
Time: 11:59:30
(UTC+00:00)

Daily predictions for brighter satellites

Satellite Brightness Start Highest point End
(mag) Time Altitude Azimuth Time Altitude Azimuth Time Altitude Azimuth
Cosmos 1992 Rocket 4.0 17:05:34 10° SSW 17:10:44 67° ESE 17:15:57 10° NNE
Cosmos 2297 Rocket 2.5 17:05:11 10° NNW 17:10:47 56° NE 17:16:20 10° SE
Okean 2 Rocket 3.9 17:07:36 10° SSE 17:11:34 31° E 17:15:32 10° NNE
BREEZE-M R/B 3.3 17:10:10 10° WSW 17:12:24 23° S 17:14:27 10° SE
SPOT 5 3.6 17:09:09 10° SE 17:14:10 45° ENE 17:19:06 10° N
Cosmos 1503 Rocket 4.1 17:10:45 10° NNW 17:16:10 86° ENE 17:21:33 10° SSE
Cosmos 2369 Rocket 2.9 17:11:58 10° SW 17:17:36 61° NW 17:23:12 10° NNE
Cosmos 1354 Rocket 4.1 17:13:40 10° NNW 17:19:01 74° ENE 17:24:21 10° SE
NOSS 2-3 (E) 4.3 17:15:38 10° WSW 17:19:25 55° NNW 17:24:03 10° NE
Cosmos 2219 4.3 17:20:04 10° NNW 17:25:11 33° NE 17:30:14 10° E
ATLAS 5 CENTAUR R/B 1.1 17:22:58 10° SSW 17:26:18 53° SE 17:30:06 10° NE
Terra 2.7 17:23:01 10° SE 17:27:14 33° ENE 17:31:27 10° N
BlueWalker 3 3.5 17:26:09 10° S 17:28:35 16° SE 17:31:02 10° E
USA 129 2.9 17:28:32 10° ENE 17:28:34 10° ENE 17:28:34 10° ENE
Cosmos 332 Rocket 4.2 17:25:17 10° NNW 17:30:02 50° NE 17:34:40 11° SE
Cosmos 2098 Rocket 3.1 17:26:35 10° SSW 17:31:07 78° WNW 17:34:50 10° N
Iridium 4 Rocket 4.3 17:26:19 10° SSE 17:31:31 41° E 17:36:57 10° NNE
NOSS 8 (F) 4.2 17:28:39 10° NW 17:31:36 80° NE 17:34:51 12° SE
CARTOSAT-1 4.1 17:28:56 10° S 17:33:08 59° WSW 17:37:23 10° NNW
Sich 1 Rocket 3.8 17:30:39 10° SSE 17:34:54 49° E 17:39:14 10° NNE
Okean 1 Rocket 3.9 17:31:16 10° SSE 17:35:16 33° E 17:39:17 10° NNE
NOSS 2-2 (C) 4.1 17:33:20 10° WSW 17:36:21 42° NNW 17:39:41 10° NE
NOSS 3-2 (A) 4.5 17:30:01 10° WNW 17:36:26 51° NNE 17:44:13 10° E
Cosmos 2263 Rocket 3.5 17:32:29 10° NNW 17:37:25 30° NE 17:42:19 10° E
USA 245 4.2 17:32:43 10° SE 17:37:28 43° ENE 17:41:22 10° N
CZ-4B R/B 4.5 17:32:16 10° S 17:37:36 43° W 17:42:54 10° NNW
USA 267 3.3 17:31:17 10° ENE 17:37:51 70° SSE 17:44:23 10° WSW
Cosmos 1455 4.4 17:35:25 10° SW 17:38:32 28° WNW 17:41:40 10° N
Okean-O 2.7 17:35:09 10° SSE 17:39:34 84° WSW 17:44:01 10° NNW
Nadezhda 3 Rocket 4.0 17:33:31 10° S 17:39:39 76° E 17:45:52 10° NNE
Ariane Rocket 3.6 17:36:14 11° SE 17:40:49 41° ENE 17:45:32 10° N
Cosmos 1605 Rocket 4.3 17:37:20 10° N 17:43:39 55° ENE 17:49:48 10° SSE
CZ-4C R/B 3.1 17:41:14 10° NNE 17:44:37 51° ESE 17:47:54 10° S
Cosmos 990 Rocket 4.2 17:42:17 10° NNW 17:47:26 58° ENE 17:51:50 14° SE
Cosmos 1437 Rocket 3.7 17:44:15 10° N 17:47:50 33° ENE 17:50:37 15° SE
Cosmos 44 4.5 17:44:29 10° S 17:48:50 25° ESE 17:53:08 10° ENE
Genesis I 4.0 17:46:27 10° WNW 17:49:53 41° SW 17:53:07 11° SSE
Aureole 1 Rocket 3.2 17:48:22 10° NNW 17:51:08 32° NE 17:53:03 16° ESE
Okean O Rocket 3.1 17:50:39 10° SSW 17:54:40 36° W 17:58:46 10° NNW
CZ-4 R/B 4.2 17:59:43 10° WSW 18:01:51 14° W 18:03:58 10° NW
CENTAUR R/B 3.4 17:54:44 10° NW 18:02:21 68° NNE 18:10:31 13° ESE
Cosmos 1536 Rocket 4.2 17:58:52 10° NNW 18:03:12 58° W 18:07:33 10° S
NOSS 3-1 (A) 3.1 18:01:12 10° SW 18:06:17 66° SE 18:12:32 10° NE
IRS-1C Rocket 4.2 18:01:58 10° SSE 18:07:15 78° WSW 18:12:35 10° NNW
Resurs 01 Rocket 3.6 18:05:40 10° SSW 18:09:28 27° W 18:13:17 10° NNW
MOS 1 Rocket 3.9 18:07:00 18° ESE 18:09:44 37° ENE 18:13:50 10° N
Cosmos 2058 3.7 18:08:48 10° N 18:12:32 35° ENE 18:14:40 21° ESE
Cosmos 1934 Rocket 4.3 18:08:23 10° NNW 18:14:30 69° W 18:20:40 10° S
USA 229 DEB 3.9 18:09:43 10° S 18:15:24 39° ESE 18:21:39 10° NE
USA 229 4.0 18:09:50 10° S 18:15:31 39° ESE 18:21:44 10° NE
ERS-1 Rocket 2.9 18:11:31 14° SSE 18:15:51 86° ENE 18:20:54 10° NNW
SPOT 3 Rocket 3.6 18:14:33 17° SSE 18:18:34 69° ENE 18:23:44 10° NNW
USA 281 4.1 18:13:35 10° S 18:19:49 44° WSW 18:26:05 10° NW
Cosmos 1339 Rocket 4.5 18:13:54 10° S 18:20:03 90° WNW 18:26:11 10° NNE
Cosmos 2227 Rocket 2.2 18:20:51 10° NW 18:26:35 88° WSW 18:30:32 21° SSE
NOSS 3-1 (C) 3.7 18:21:37 10° WSW 18:26:53 68° NNW 18:33:28 10° NE
Cosmos 2151 Rocket 4.2 18:22:57 10° SSW 18:27:18 57° WNW 18:31:43 10° N
Cosmos 2344 4.4 18:21:06 10° W 18:28:12 52° NNW 18:36:19 10° ENE
Landsat 5 4.3 18:25:29 10° NNE 18:29:20 31° E 18:30:43 25° SE
Cosmos 1980 Rocket 3.5 18:31:51 18° ESE 18:32:36 19° E 18:36:26 10° ENE
ATLAS CENTAUR R/B 1.1 18:29:15 10° NW 18:33:00 89° SW 18:34:52 29° SE
Cosmos 292 Rocket 3.9 18:32:46 10° NNW 18:37:30 63° ENE 18:40:04 26° SE
Cosmos 1892 Rocket 3.5 18:33:53 10° NNW 18:38:15 81° W 18:41:02 22° S
Cosmos 1937 Rocket 3.8 18:35:13 10° NNW 18:40:30 59° ENE 18:43:32 25° SE
ATLAS 3B R/B 3.0 18:33:19 10° SW 18:40:37 85° NW 18:48:24 10° NE
COSMOS 2455 3.3 18:34:51 10° NW 18:40:43 54° WSW 18:44:51 20° S
Cosmos 1697 Rocket 3.2 18:37:21 18° SSE 18:40:59 39° ESE 18:46:13 10° NE
Cosmos 2360 4.4 18:36:20 10° S 18:41:48 50° ESE 18:47:17 10° NE
SL-4 R/B 2.7 18:39:27 10° W 18:42:33 28° SSW 18:43:07 27° S
H-2A R/B 4.0 18:42:12 16° E 18:43:34 20° ENE 18:46:21 10° N
Okean 1-7 Rocket 4.5 18:43:22 10° N 18:47:35 36° ENE 18:49:22 26° ESE
Okean 2 Rocket 4.4 18:45:15 10° SW 18:49:30 40° WNW 18:53:47 10° N
CZ-4C R/B 3.1 18:45:23 10° NW 18:52:09 66° SW 18:57:31 23° SSE
SPOT 5 4.3 18:47:19 10° SSW 18:52:16 38° W 18:57:09 10° NNW
NOSS 3-2 (C) 4.3 18:46:01 10° NW 18:52:41 59° NNE 18:59:43 14° ESE
Cosmos 1898 Rocket 3.5 18:47:45 10° NNW 18:53:04 88° ENE 18:55:50 29° SSE
MetOp-A 3.2 18:52:40 35° SSE 18:54:12 82° ENE 18:58:03 10° NNW
Cosmos 2297 Rocket 3.3 18:49:31 10° NW 18:54:40 37° WSW 18:58:47 15° S
Cosmos 1602 Rocket 4.3 18:51:34 10° N 18:55:40 38° ENE 18:57:08 29° ESE
Cosmos 1758 Rocket 4.2 18:52:03 10° N 18:56:19 43° ENE 18:57:55 31° ESE
Spot 2 Rocket 4.0 18:56:18 19° S 18:59:50 56° W 19:04:49 10° NNW
Cosmos 405 Rocket 2.5 18:59:06 26° SSW 19:01:06 87° WNW 19:04:50 10° NNE
USA 81 4.0 18:58:09 26° SSE 19:01:08 67° E 19:06:23 10° NNE
Cosmos 2228 3.9 19:01:42 28° ESE 19:02:11 29° E 19:05:50 10° NNE
Cosmos 1725 Rocket 4.4 18:56:43 10° N 19:02:44 49° ENE 19:05:48 27° SE
ARIANE 5 R/B 3.4 19:02:21 29° ESE 19:04:02 40° ENE 19:08:14 10° N
Cosmos 1459 Rocket 4.0 18:58:14 10° N 19:04:18 70° ENE 19:07:34 29° SSE
Cosmos 1656 3.7 18:58:54 10° SW 19:04:28 78° NW 19:10:00 10° NNE
Terra 2.6 19:01:25 18° SSW 19:04:44 46° W 19:09:18 10° NNW
Meteor 2-1 Rocket 4.4 19:03:28 29° SSE 19:05:58 51° E 19:11:17 10° NNE
BlueWalker 3 2.1 19:02:30 10° SW 19:06:07 45° SSE 19:06:07 45° SSE
Spot 1 4.1 19:03:37 10° NNE 19:08:23 79° ESE 19:10:50 27° S
Cosmos 2219 3.2 19:04:11 10° NW 19:09:52 76° WSW 19:12:38 31° SSE
ATLAS 5 CENTAUR R/B 2.7 19:06:56 10° W 19:10:21 38° NNW 19:14:21 10° NE
Cosmos 1455 Rocket 3.2 19:09:45 21° SSW 19:12:39 75° WNW 19:17:03 10° N
Ariane Rocket 4.0 19:16:23 17° SSW 19:19:48 39° W 19:24:33 10° NNW
Cosmos 858 Rocket 4.5 19:15:13 10° NNW 19:20:33 88° ENE 19:22:42 37° SSE
USA 267 3.4 19:14:26 10° ENE 19:21:01 80° N 19:27:35 10° W
Cosmos 1666 4.2 19:18:48 10° NNE 19:21:35 21° ENE 19:21:52 21° ENE
Cosmos 2263 Rocket 2.1 19:16:21 10° NW 19:22:00 86° WSW 19:24:25 36° SSE
ALOS 2 4.2 19:21:12 20° E 19:22:43 24° ENE 19:26:16 10° N
Cosmos 1763 Rocket 3.4 19:17:54 11° SSW 19:22:47 83° WNW 19:27:59 10° NNE
Cosmos 1437 Rocket 4.3 19:20:04 10° NNW 19:23:31 31° W 19:25:29 20° SW
NOSS 3-2 (A) 3.9 19:20:52 10° NW 19:27:55 83° SW 19:32:37 29° SE
Cosmos 2082 3.7 19:22:36 10° NW 19:28:18 80° WSW 19:30:38 37° SSE
Cosmos 2173 Rocket 4.1 19:22:36 10° NNW 19:29:01 81° W 19:32:25 30° S
Cosmos 44 3.5 19:24:08 10° SW 19:29:34 87° NW 19:34:52 10° NE
Cosmos 1862 3.7 19:26:05 10° N 19:29:52 45° ENE 19:30:23 42° E
Aureole 1 Rocket 4.2 19:31:57 10° WNW 19:34:08 19° WSW 19:34:29 18° WSW
Cosmos 1544 2.8 19:31:14 10° N 19:33:47 64° N 19:33:47 64° N
Meteor 2-3 Rocket 3.7 19:29:15 10° NNW 19:34:58 86° WSW 19:37:24 37° S
Cosmos 1271 Rocket 3.8 19:36:13 10° N 19:39:39 31° ENE 19:39:59 31° ENE
Cosmos 2322 Rocket 4.3 19:40:26 10° E 19:40:26 10° E 19:41:05 10° E
Cosmos 1500 3.7 19:39:21 10° N 19:42:39 39° ENE 19:42:39 39° ENE
Cosmos 540 Rocket 3.5 19:39:04 19° SSW 19:42:44 78° WNW 19:47:53 10° NNE
Meteor 2-15 4.5 19:36:59 10° NNW 19:43:09 79° W 19:45:56 34° S
Meteor 2-15 Rocket 4.4 19:40:14 10° NNW 19:46:26 87° ENE 19:48:58 38° SSE
Intercosmos 25 4.3 19:42:52 10° NNW 19:47:49 46° W 19:49:00 34° SW
MOS 1 Rocket 4.4 19:46:11 24° SW 19:47:58 33° W 19:51:59 10° NNW
Cosmos 1864 Rocket 4.4 19:42:14 10° NNW 19:48:27 85° W 19:51:03 37° S
Cosmos 2058 4.3 19:45:33 10° NNW 19:49:04 30° W 19:50:33 23° SW
Cosmos 1606 2.4 19:49:34 82° ESE 19:49:38 82° E 19:53:16 10° NNE
Cosmos 1626 Rocket 4.3 19:46:24 10° NNW 19:50:39 47° W 19:52:02 34° SW
Cosmos 1802 Rocket 4.1 19:45:01 10° NNW 19:51:18 76° W 19:54:10 35° S
PSLV R/B 4.2 19:47:53 10° NNE 19:51:50 50° E 19:51:50 50° E
Spot 4 4.2 19:51:15 42° ESE 19:52:32 55° ENE 19:57:14 10° N
USA 238 DEB 4.1 19:45:32 10° NW 19:52:36 68° NNE 19:58:10 20° ESE
USA 238 4.1 19:45:38 10° NW 19:52:41 67° NNE 19:58:18 20° ESE
CENTAUR R/B 3.5 19:45:27 10° NW 19:53:19 59° SW 19:57:39 32° SSE
Cosmos 468 Rocket 4.2 19:51:31 19° SW 19:55:18 69° WNW 20:00:34 10° NNE
Cosmos 1844 4.4 19:51:16 10° NNW 19:56:52 49° NE 19:59:45 27° ESE
NOSS 3-1 (A) 4.3 19:52:02 10° W 19:57:24 51° NNW 20:04:06 10° NE
Cosmos 2016 Rocket 4.0 19:52:40 10° NNW 19:58:47 78° W 20:01:17 38° S
SL-16 R/B 3.6 19:59:19 22° E 19:59:19 22° E 20:03:25 10° NE
Cosmos 1953 Rocket 3.8 20:00:07 10° N 20:04:24 52° ENE 20:04:56 49° E
Cosmos 841 Rocket 3.3 20:03:36 45° SSW 20:05:13 81° ESE 20:10:23 10° NNE
Uosat 12 SS-18 rocket 3.9 20:00:49 10° NW 20:05:33 81° SW 20:06:08 66° SSE
USA 229 DEB 3.8 19:59:35 10° WSW 20:05:57 74° NW 20:13:04 10° NE
USA 229 3.8 19:59:41 10° WSW 20:06:03 74° NW 20:13:10 10° NE
Cosmos 1844 Rocket 3.0 20:01:02 10° NNW 20:06:36 58° NE 20:08:52 34° ESE
Spot 2 3.8 20:09:01 69° ESE 20:09:20 75° ENE 20:13:25 10° NNW
Cosmos 1125 Rocket 4.0 20:04:26 10° NNW 20:09:35 52° NE 20:11:22 36° ESE
Cosmos 1869 3.6 20:09:00 49° WSW 20:09:36 56° WNW 20:13:24 10° N
Cosmos 2227 Rocket 4.0 20:05:49 10° NW 20:09:55 21° W 20:12:21 16° SW
ATLAS CENTAUR R/B 3.3 20:07:54 10° WNW 20:09:58 16° WSW 20:09:58 16° WSW
Cosmos 1544 Rocket 4.3 20:12:25 33° SW 20:13:56 48° WNW 20:18:09 10° N
Cosmos 1980 Rocket 2.1 20:13:32 38° SSW 20:15:48 83° ESE 20:21:30 10° NE
H-2A R/B 2.5 20:18:14 57° WSW 20:18:14 57° WSW 20:22:01 10° NNW
Cosmos 2278 4.2 20:20:58 38° ESE 20:21:18 39° ESE 20:26:32 10° NE
Cosmos 2123 Rocket 4.1 20:21:07 34° SSW 20:24:04 74° WNW 20:30:26 10° N
Cosmos 1697 Rocket 3.4 20:19:18 10° SW 20:24:51 54° NW 20:30:26 10° NNE
Cosmos 1812 4.3 20:29:18 23° ENE 20:29:18 23° ENE 20:31:28 10° NE
Meteor 1-27 4.1 20:28:24 49° SSW 20:30:02 89° ESE 20:35:38 10° NNE
Cosmos 2151 2.8 20:25:48 10° N 20:30:03 79° ENE 20:30:13 77° ESE
CZ-2C R/B 4.0 20:26:36 10° NNE 20:31:21 69° WNW 20:32:37 46° SW
ATLAS 3B R/B 3.9 20:25:03 10° W 20:32:15 48° NNW 20:39:47 10° ENE
Cosmos 2228 4.0 20:38:16 32° WSW 20:39:24 39° WNW 20:43:22 10° N
CZ-4C R/B 4.4 20:34:32 10° WNW 20:39:58 23° WSW 20:42:37 19° SW
ARIANE 5 R/B 3.7 20:39:49 32° WSW 20:40:30 33° W 20:44:36 10° NNW
NOSS 3-2 (C) 4.0 20:36:51 10° NW 20:43:57 66° SW 20:47:08 40° SSE
Cosmos 2344 4.4 20:36:39 10° WNW 20:44:03 56° NNE 20:53:27 10° E
Cosmos 2227 4.4 20:39:07 10° NW 20:44:44 58° WSW 20:45:50 49° SSW
Cosmos 2237 4.5 20:47:26 46° SE 20:47:58 47° ESE 20:53:26 10° NE
Cosmos 2369 3.7 20:45:58 37° SW 20:48:18 78° NW 20:54:00 10° NNE
Cosmos 2233 Rocket 4.4 20:42:42 10° NNW 20:48:41 54° W 20:50:44 38° SW
Cosmos 1076 Rocket 3.3 20:45:02 10° NNW 20:49:22 88° E 20:49:28 85° SE
Cosmos 2150 Rocket 4.2 20:45:51 10° NNW 20:50:59 63° ENE 20:52:20 46° ESE
Cosmos 1825 Rocket 4.3 20:48:31 10° NNW 20:52:37 40° W 20:52:59 39° WSW
Cosmos 1606 Rocket 3.6 20:53:31 61° WSW 20:53:55 65° WNW 20:58:13 10° N
H-2A R/B 2.7 20:50:17 10° NNE 20:53:58 41° E 20:53:58 41° E
Cosmos 2298 Rocket 4.2 20:49:25 10° NNW 20:54:45 68° ENE 20:56:09 48° ESE
ATLAS 5 CENTAUR R/B 3.6 20:51:44 10° WNW 20:55:12 28° N 20:59:18 10° ENE
Cosmos 1666 3.6 20:52:52 10° NNW 20:55:38 37° WNW 20:55:38 37° WNW
Lacrosse 4 Rocket 1.7 20:57:46 55° ENE 20:57:46 55° ENE 21:01:03 10° NE
Cosmos 1464 Rocket 4.1 20:51:51 10° N 20:58:16 73° ENE 21:00:18 45° SSE
ALOS 2 2.7 20:58:36 58° WSW 20:58:45 59° WSW 21:03:08 10° NNW
Cosmos 1447 Rocket 4.4 20:57:57 48° SSW 20:59:50 87° WNW 21:06:01 10° N
USA 267 3.2 20:57:25 10° E 21:04:00 84° NNE 21:10:35 10° WNW
SL-19 R/B 4.3 20:58:20 10° NNE 21:04:00 88° WNW 21:05:44 49° SSW
Cosmos 2263 Rocket 3.8 21:01:16 10° WNW 21:05:10 20° W 21:06:06 19° WSW
Cosmos 1814 Rocket 3.9 21:04:55 59° SSW 21:05:56 87° WNW 21:11:07 10° NNE
Cosmos 2360 Rocket 3.0 21:09:23 34° ESE 21:09:44 35° ESE 21:14:47 10° NE
Cosmos-2242 3.9 21:09:57 37° E 21:09:57 37° E 21:13:42 10° NNE
Helios 1A Rocket 4.2 21:09:10 29° E 21:09:48 31° ENE 21:13:20 10° N
Cosmos 2058 Rocket 2.9 21:10:16 82° ESE 21:10:19 82° E 21:14:41 10° NNE
Aureole 3 Rocket 3.9 21:06:53 10° N 21:11:17 36° ENE 21:11:48 34° E
Cosmos 1891 Rocket 4.5 21:06:44 10° NNW 21:12:53 72° W 21:14:37 49° SSW
Cosmos 1513 Rocket 4.4 21:07:17 10° NNW 21:13:22 76° W 21:15:01 51° S
Cosmos 1271 Rocket 4.1 21:11:42 10° NNW 21:14:33 29° WNW 21:14:33 29° WNW
Meteor 1-20 Rocket 4.1 21:10:04 10° NNW 21:15:44 90° ENE 21:17:02 56° SSE
Cosmos 1867 4.0 21:10:24 10° NW 21:15:52 59° NE 21:19:19 22° ESE
Cosmos 1461 4.1 21:12:34 10° NW 21:16:13 36° NNE 21:17:59 23° E
Cosmos 2084 Rocket 3.8 21:14:20 10° NW 21:17:19 48° WNW 21:17:19 48° WNW
Cosmos 2034 Rocket 4.0 21:14:08 10° N 21:20:21 73° ENE 21:22:16 46° SSE
Cosmos 2278 Rocket 3.8 21:15:36 10° NNW 21:20:43 33° NE 21:25:50 10° E
Cosmos 2333 Rocket 2.9 21:21:48 36° ESE 21:22:17 37° ESE 21:27:25 10° NE
Cosmos 2322 Rocket 2.4 21:22:12 49° SE 21:22:51 52° ESE 21:28:18 10° NE
Cosmos 1570 Rocket 4.0 21:22:21 60° SSE 21:22:55 65° ESE 21:28:07 10° NNE
Cosmos 2219 Rocket 3.5 21:24:01 25° ESE 21:24:31 25° ESE 21:29:00 10° NE
Lacrosse 5 2.9 21:26:47 32° ESE 21:26:47 32° ESE 21:30:12 10° ENE
Meteor 1-25 Rocket 4.1 21:21:53 10° NNW 21:27:33 88° WSW 21:28:46 57° S
SL-24 R/B 4.2 21:22:31 10° NNE 21:27:39 73° ESE 21:28:07 67° SSE
USA 32 4.5 21:31:37 43° SE 21:32:38 50° E 21:37:41 10° NNE
Cosmos 1726 Rocket 4.5 21:33:51 35° W 21:34:30 37° WNW 21:38:32 10° N
Cosmos 2221 4.1 21:36:52 22° E 21:37:18 23° E 21:40:40 10° NE
Cosmos 1809 Rocket 4.5 21:36:56 48° SSW 21:38:47 78° WNW 21:45:02 10° N
Cosmos 1844 4.1 21:35:34 10° NW 21:41:02 46° WSW 21:41:36 44° SW
Cosmos 1634 Rocket 4.4 21:35:01 10° N 21:41:18 59° ENE 21:43:58 34° SE
Geosat 3.9 21:40:26 59° SSE 21:41:26 86° WSW 21:46:30 10° NW
Cosmos 1238 Rocket 3.6 21:42:25 37° NW 21:42:25 37° NW 21:45:39 10° N
SL-16 R/B 2.1 21:41:08 52° SW 21:42:37 87° WNW 21:48:20 10° NNE
USA 238 DEB 4.1 21:36:36 10° NW 21:43:35 52° SW 21:45:33 42° S
SL-19 R/B 4.5 21:39:30 10° NNE 21:43:41 73° ESE 21:43:47 73° ESE
USA 238 4.1 21:36:42 10° NW 21:43:41 53° SW 21:45:42 42° S
Cosmos 1782 3.0 21:49:03 62° ENE 21:49:03 62° ENE 21:52:31 10° NNE
Cosmos 1844 Rocket 3.4 21:45:15 10° NW 21:50:17 35° WSW 21:50:30 35° WSW
Cosmos 1125 Rocket 4.4 21:46:46 10° NW 21:51:27 34° WSW 21:51:35 34° WSW
Cosmos 1378 4.4 21:57:02 30° ENE 21:57:02 30° ENE 21:59:30 10° NNE
Resurs 1-4 Rocket 4.3 21:53:39 10° NE 21:56:45 16° E 21:59:26 11° ESE
Cosmos 1943 Rocket 3.7 21:53:24 10° NNW 21:58:36 35° NE 22:03:47 10° ESE
NOSS 2-1 (E) 4.0 22:00:22 38° NNE 22:00:22 38° NNE 22:02:33 10° NE
Cosmos 1980 Rocket 3.8 21:55:28 10° W 22:00:26 31° NW 22:05:28 10° NNE
PSLV R/B 4.1 21:56:06 10° N 22:00:38 56° WNW 22:01:26 49° WSW
NOSS 2-1 (C) 3.9 22:01:53 40° NNE 22:01:53 40° NNE 22:04:11 10° NE
Timation 2 Rocket 4.4 21:56:04 10° NW 22:02:19 45° WSW 22:03:23 41° SW
Cosmos 158 Rocket 3.7 22:01:42 65° S 22:02:22 79° ESE 22:07:25 10° NNE
NOSS 2-2 (E) 3.7 21:58:31 10° NW 22:02:26 76° NE 22:05:29 24° ESE
Cosmos 2084 4.1 22:01:57 36° WNW 22:02:58 46° NNW 22:06:40 10° NE
Cosmos 1812 3.8 22:03:29 33° WNW 22:03:29 33° WNW 22:06:36 10° N
Cosmos 2278 4.2 22:02:49 31° WSW 22:05:19 54° NW 22:10:55 10° NNE
Meteor 2-2 Rocket 4.3 22:06:08 50° S 22:07:46 85° ESE 22:13:46 10° NNE
Cosmos 1816 Rocket 4.4 22:06:57 47° SSW 22:08:49 78° WNW 22:15:00 10° N
USA 215 3.9 22:03:24 10° ENE 22:09:17 34° SE 22:10:14 33° SSE
Cosmos 489 Rocket 4.4 22:03:50 10° NNW 22:10:09 77° WSW 22:12:17 44° S
Cosmos 1933 3.2 22:12:30 86° N 22:12:30 86° N 22:16:24 10° NNE
Cosmos 1766 Rocket 3.6 22:09:18 10° N 22:13:38 70° ENE 22:14:15 59° SE
CZ-2C R/B 4.0 22:13:11 11° ESE 22:17:51 35° ENE 22:22:37 10° N
Cosmos 1743 2.9 22:15:20 10° N 22:19:00 58° ENE 22:19:05 58° E
SL-16 R/B 4.1 22:14:23 10° ESE 22:19:48 33° NE 22:25:15 10° N
NOSS 2-2 (D) 3.6 22:16:48 10° NW 22:20:40 77° NE 22:25:59 10° SE
NOSS 2-3 (C) 4.3 22:16:23 10° NW 22:21:33 85° NE 22:28:40 10° SE
Meteor 1-5 Rocket 4.3 22:16:02 10° NNW 22:21:47 67° W 22:23:22 47° SSW
Cosmos 2208 Rocket 4.3 22:21:10 44° WSW 22:22:48 66° WNW 22:28:16 10° NNE
Cosmos 1726 3.7 22:20:38 10° NNE 22:23:18 23° ENE 22:23:57 22° E
Cosmos 1515 3.7 22:24:45 67° NNW 22:24:45 67° NNW 22:27:57 10° N
ATLAS 3B R/B 3.9 22:17:07 10° WNW 22:24:30 48° NNE 22:32:04 10° E
Cosmos 2279 Rocket 4.0 22:18:31 10° N 22:24:48 78° ENE 22:27:37 35° SSE
NOSS 3-4 (A) 3.3 22:25:04 48° S 22:26:28 64° SE 22:32:36 10° NE
NOSS 3-4 (C) 3.3 22:25:07 48° S 22:26:30 64° SE 22:32:39 10° NE
NOSS 2-3 (D) 4.3 22:21:29 10° NW 22:26:37 86° NE 22:33:42 10° SE
H-2A R/B 3.3 22:26:15 10° N 22:29:56 30° WNW 22:30:48 28° W
NOSS 2-1 (D) 3.9 22:29:54 36° NNW 22:29:57 36° NNW 22:32:51 10° NE
ADEOS II 4.2 22:28:06 10° NE 22:31:46 19° E 22:35:12 11° SE
Cosmos 44 Rocket 3.5 22:32:11 51° S 22:33:07 60° SE 22:38:12 10° NE
Meteor 1-26 Rocket 4.2 22:31:16 45° S 22:33:08 81° ESE 22:39:04 10° NNE
Lacrosse 4 Rocket 3.1 22:33:41 18° WNW 22:35:44 27° NNW 22:39:11 10° NNE
Cosmos 2237 Rocket 4.1 22:34:53 15° SE 22:37:30 20° E 22:41:31 10° NE
ATLAS 5 CENTAUR R/B 2.8 22:35:46 10° NW 22:39:58 47° NNE 22:45:08 10° ESE
COSMOS 2428 3.4 22:39:20 33° SSE 22:41:09 43° ESE 22:46:31 10° NE
Nimbus 7 Rocket 4.3 22:36:48 10° NNE 22:42:41 83° WNW 22:44:50 42° SSW
Tsikada Rocket 4.0 22:40:53 41° SSW 22:43:07 70° WNW 22:49:18 10° N
Helios 1A Rocket 3.8 22:44:37 35° W 22:44:37 35° W 22:47:52 10° NNW
GEOS 3 Rocket 3.5 22:40:54 20° SE 22:44:45 77° SW 22:50:05 10° NW
Cosmos 773 Rocket 4.0 22:45:07 47° SW 22:46:41 79° WNW 22:51:59 10° NNE
Cosmos-2242 4.1 22:46:33 29° W 22:47:12 31° WNW 22:50:59 10° N
USA 267 3.2 22:40:50 10° SE 22:47:17 59° SSW 22:53:46 10° WNW
Meteor 1-14 Rocket 4.1 22:42:25 10° NNW 22:47:59 85° WSW 22:50:12 38° S
Cosmos 1812 Rocket 4.3 22:48:04 38° W 22:48:51 42° WNW 22:53:07 10° N
Cosmos 2322 3.9 22:50:35 39° S 22:52:33 61° ESE 22:58:12 10° NE
NOSS 2-3 (E) 4.3 22:48:01 10° NW 22:53:16 71° SW 23:00:29 10° SE
Cosmos 2360 Rocket 2.5 22:51:06 33° WSW 22:53:30 59° NW 22:59:07 10° NNE
Cosmos 1461 3.5 22:50:52 10° NW 22:53:33 38° WNW 22:53:33 38° WNW
IRIDIUM 103 4.4 22:50:14 10° N 22:55:29 78° E 22:57:45 35° SSE
Okean 3 Rocket 3.5 22:51:15 10° NNW 22:55:49 82° W 22:56:55 51° S
Cosmos 2333 4.2 22:54:04 39° SW 22:56:12 73° NW 23:01:51 10° NNE
Aureole 3 Rocket 4.3 22:54:33 10° NNW 22:58:11 24° W 22:58:11 24° W
Cosmos 2344 3.9 22:51:02 10° NW 22:59:03 75° SW 23:09:56 10° SE
Cosmos 1867 3.9 22:54:13 10° NW 22:59:23 42° WSW 22:59:55 41° SW
Cosmos 783 Rocket 4.4 22:58:25 45° SSW 23:00:06 87° WNW 23:05:22 10° NNE
RESURS DK-1 3.3 23:01:49 32° SE 23:02:32 35° ESE 23:06:16 10° NE
H-2A R/B 3.8 22:59:02 10° NNE 23:03:04 56° ESE 23:04:08 42° SSE
Cosmos 2278 Rocket 2.1 22:59:39 10° NW 23:05:22 76° WSW 23:09:02 23° SSE
Cosmos 2333 Rocket 2.6 23:03:48 31° WSW 23:06:24 57° NW 23:12:00 10° NNE
Cosmos 2322 Rocket 3.0 23:04:00 23° WSW 23:07:04 43° NW 23:12:26 10° NNE
Cosmos 2219 Rocket 2.2 23:05:42 38° SW 23:07:56 77° NW 23:13:35 10° NNE
Lacrosse 5 1.8 23:05:56 34° WSW 23:08:12 88° SSE 23:13:21 10° ENE
NOSS 2-2 (C) 3.7 23:04:11 10° NW 23:08:12 61° SW 23:13:45 10° SE
Cosmos 1538 Rocket 4.4 23:08:48 32° S 23:11:01 55° ESE 23:16:13 10° NNE
CZ-2D R/B 2.8 23:06:56 10° NNE 23:12:09 49° E 23:15:11 24° SSE
BREEZE-M DEB (TANK) 3.6 23:13:45 35° SSE 23:13:45 35° SSE 23:19:00 10° E
Cosmos 192 4.2 23:08:48 10° NNW 23:13:43 77° WSW 23:16:12 29° SSE
IRIDIUM 106 4.2 23:08:33 10° N 23:13:48 79° W 23:16:01 35° S
Cosmos 2221 2.8 23:13:29 43° WSW 23:14:22 50° WNW 23:18:33 10° N
Cosmos 1408 Rocket 3.4 23:11:52 10° NNW 23:16:12 86° W 23:17:46 40° S
Cosmos 2056 Rocket 4.3 23:12:07 10° NNW 23:17:26 55° NE 23:22:45 10° SE
Meteor 1-11 Rocket 3.6 23:13:23 10° NNW 23:19:00 90° ENE 23:22:33 23° SSE
Cosmos 1842 Rocket 3.5 23:21:55 42° SSW 23:23:23 84° WNW 23:27:53 10° N
ATLAS 2AS CENTAUR R/B 4.4 23:21:20 11° SSE 23:26:37 24° ESE 23:32:04 10° ENE
Cosmos 972 Rocket 4.1 23:24:38 35° SW 23:26:48 67° WNW 23:31:46 10° NNE
SL-16 R/B 3.8 23:22:57 12° W 23:27:29 29° NNW 23:32:24 10° NNE
CZ-2C R/B 4.0 23:22:35 10° NNE 23:27:31 44° E 23:31:22 17° SSE
MOZ.5/SAFIR/RUBIN 5/SL-8 4.4 23:27:03 34° WSW 23:27:55 37° W 23:32:20 10° NNW
Cosmos 1624 Rocket 4.4 23:23:23 10° NNW 23:28:37 63° ENE 23:33:46 10° SE
Cosmos 1733 3.6 23:25:17 10° N 23:28:51 57° ENE 23:30:50 24° SSE
Cosmos 1378 4.4 23:30:16 23° WNW 23:30:28 23° WNW 23:33:14 10° NNW
SL-16 R/B 4.4 23:28:07 10° SE 23:31:38 17° E 23:35:10 10° ENE
Cosmos 1500 Rocket 3.5 23:30:54 10° NNW 23:35:22 76° W 23:37:28 31° S
Cosmos 1805 Rocket 3.4 23:31:39 10° NNW 23:36:00 88° W 23:38:22 27° S
IDEFIX/ARIANE 42P 2.5 23:31:49 10° NNE 23:37:03 89° E 23:39:49 29° SSW
Resurs 1-4 Rocket 2.2 23:32:07 10° NNE 23:37:28 77° ESE 23:40:31 26° S
Sich 1 2.9 23:34:55 10° NNW 23:39:10 83° W 23:41:25 27° S
NOSS 3-1 (A) 4.3 23:34:48 10° NW 23:41:26 68° NNE 23:49:40 10° ESE
Cosmos 1536 2.9 23:37:53 10° NNW 23:41:40 52° W 23:42:36 41° SW
Cosmos 1943 Rocket 2.1 23:37:08 10° NW 23:42:47 69° WSW 23:48:25 10° SSE
ALOS 3.5 23:42:13 10° NNE 23:46:31 36° E 23:50:33 11° SSE
NOSS 0 Rocket 4.0 23:43:20 26° SSW 23:46:58 71° ESE 23:53:07 10° NE
Okean 1 3.1 23:48:49 32° S 23:50:27 82° ESE 23:54:17 10° NNE
Gbstr 26 Del rocket 3.1 23:49:29 34° SW 23:50:51 48° S 23:54:36 10° E
USA 215 3.2 23:46:23 10° ENE 23:52:58 75° SSE 23:57:34 21° WSW
COBE Rocket 3.7 23:50:24 10° NNE 23:55:05 82° WNW 23:57:42 26° SSW
Cosmos 1726 2.8 23:53:57 10° NNW 23:56:41 29° W 23:56:41 29° W
